Reflectivity
-20 -20 -20 -20 -20 -20 -20 -20 -20 -20 -20 -20 -20 -20 -20 -20 -20 -2 -20 -20 -20 -20 -20 -20 -20 -20 -20 -20 -20 -20 -20 -20 -20 -20 -20 -20 -20 -20 -20 -20 -15 -19 -20 -20 -20 5 -20 -20 -20
-20 -20 -20 -20 -20 -20 -20 -20 -13 -20 -20 -20 -20 -20 -20 -20 -20 -20 -20 -20 -20 -20 -20 -20 -20 -20 -20 -20 -20 -20 -20 -20 -20 -20 -20 -20 -20 -20 -20 -20 -20 -20 -20 -20 14 -4 -20 -20 -20
-20 -20 -20 -20 -20 -20 -20 -20 -19 -20 -20 -20 -20 -20 -20 -20 -20 -20 -20 -20 -20 -20 -20 -20 -20 -20 -20 -20 -20 -20 -20 -20 -20 -20 -20 -18 -20 -20 -20 -20 -20 -20 -20 -20 -14 -18 -20 -20 -20
-20 -20 -20 -20 -20 -20 -20 -20 -20 -20 -20 -20 -20 -20 -20 -20 -20 -20 -20 -20 -20 -20 -20 -20 -20 -20 -20 -20 -20 -20 -20 -20 1 14 11 9 -20 -20 -20 -20 -20 -20 -20 -20 -20 0 -20 -20 -20
-20 -20 -20 -20 -20 -20 -20 -20 -20 -20 -20 -20 -20 -20 -20 -20 -20 -20 -20 -20 -20 -20 -20 -20 -12 -2 -0 -6 -1 6 4 2 -4 6 8 3 -17 -20 -20 -20 -20 -20 -20 -20 -20 -20 -20 -20 -20
-20 -20 -20 -20 -20 -20 -18 -20 -20 -20 -20 -20 -20 -20 -20 6 -20 -20 -20 -20 -20 -20 -20 -20 4 11 14 11 8 -20 -20 -20 -20 -20 -20 -11 -20 -20 -20 -20 -20 -20 -20 -20 -20 -20 -20 -20 -20
-20 -20 -20 -20 -20 -20 -20 -20 -20 -20 -20 -20 -20 -20 -20 -20 -20 -20 -20 -20 -20 -20 -20 -20 3 3 12 -7 -19 -20 -20 -19 -20 -20 -20 -20 -20 -20 -20 -20 -20 -20 -20 -20 -20 -20 -20 -20 -20
-20 -20 -20 -20 -20 -20 -20 -20 -20 -20 -20 -20 -20 -20 -20 -15 -20 -20 -20 -19 -20 -20 -17 -20 -6 -20 -20 -20 -20 -20 -20 -20 -20 -20 -20 -20 -20 -20 -20 -20 -20 -20 -20 -20 -20 -20 -20 -20 -20
-20 -20 -20 -20 -20 -20 -20 -20 -20 -20 -20 -20 -20 -20 -20 -20 -19 -20 -11 -4 -20 -3 1 12 2 -12 -20 -20 -20 -20 -20 -20 -20 -20 -20 -20 -20 -20 -20 -20 -20 -20 -20 -20 -20 -20 -20 -20 -20
-20 -20 -20 -20 -20 -20 -20 -20 -20 -20 -20 -20 -20 -20 -20 -20 -20 -20 -13 -2 -3 12 8 -11 -6 -16 -20 -20 -20 -20 -20 -20 -20 -20 -20 -20 -20 -20 -20 -20 -20 -20 -20 -20 -20 -20 -20 -20 -20
-20 -20 -20 -20 -20 -20 -20 -20 -20 -20 -20 -20 -20 -20 -20 -20 -19 -4 -5 -19 -20 8 0 -20 -20 -20 -20 -20 -20 -20 -20 -20 -20 -20 -20 -20 -20 -20 -20 -20 -20 -20 -20 -20 -20 -20 -20 -20 -20
-20 -20 -20 -20 -20 -20 -20 -20 -20 -20 -20 -20 -20 -20 -20 -20 -20 -20 -16 10 9 15 -20 -20 -20 -20 -20 -20 -20 -20 -20 -20 -20 -20 -20 -20 -20 -20 -20 -20 -20 -20 -20 -20 -20 -20 -20 -20 -20
-20 -20 -20 -20 -20 -20 -20 -20 -20 -20 -20 -20 -20 -20 -20 -20 -20 -20 -20 -20 -20 -4 -16 -20 -3 -20 -20 -20 -20 -20 -20 -20 -20 -20 -20 -20 -20 -20 -20 -20 -20 -20 -20 -20 -20 -20 -20 -20 -20
-20 -20 -20 -20 -20 -20 -20 -20 -20 -20 -20 -20 -20 -20 -20 -20 -20 -20 -20 -20 -20 -20 -20 -17 -2 -20 -20 -20 -20 -20 -20 -20 -20 -20 -20 -20 -20 -20 -20 -20 -20 -20 -20 -20 -20 -20 -20 -20 -20
-20 -20 -20 -20 -20 -20 -20 -20 -20 -20 -20 -20 -20 -20 -20 -20 -20 -20 -20 -20 -20 -20 -20 -20 -20 -20 -20 -20 -20 -20 -20 -20 -20 -20 -20 -20 -20 -20 -20 -20 -20 -20 -20 -20 -20 -20 -20 -20 -20
-20 -20 -20 -20 -20 -20 -20 -20 -20 -20 -20 -20 -20 -20 -20 -20 -20 -20 -20 -20 -20 -20 -20 -20 -20 -20 -20 -20 -20 -20 -20 -20 -20 -20 -20 -20 -20 -20 -20 -20 -20 -20 -20 -20 -20 -20 -20 -20 -20
-20 -20 -20 -20 -20 -20 -20 -20 -20 -20 -20 -20 -20 -20 -20 -20 -20 -20 -20 -20 -20 -20 -20 -20 -20 -20 -20 -20 -20 -20 -20 -20 -20 -20 -20 -20 -20 -20 -20 -20 -20 -20 -20 -20 -20 -20 -20 -20 -20
-20 -20 -20 -20 -20 -20 -20 -20 -20 -20 -20 -20 -20 -20 -20 -20 -20 -20 -20 -20 -20 -20 -20 -20 -20 -20 -20 -20 -20 -20 -20 -20 -20 -20 -20 -20 -20 -20 -20 -20 -20 -20 -20 -20 -20 -20 -20 -20 -20
-20 -20 -20 -20 -20 -20 -20 -20 -20 -20 -20 -20 -20 -20 -20 -20 -20 -20 -20 -20 -20 -20 -20 -20 -20 -20 -20 -20 -20 -20 -20 -20 -20 -20 -20 -20 -20 -20 -20 -20 -20 -20 -20 -20 -20 -20 -20 -20 -20
-20 -20 -20 -20 -20 -20 -20 -20 -20 -20 -20 -20 -20 -20 -20 -20 -20 -20 -20 -20 -20 -20 -20 -20 -20 -20 -20 -20 -20 -20 -20 -20 -20 -20 -20 -20 -20 -20 -20 -20 -20 -20 -20 -20 -20 -20 -20 -20 -20
-20 -20 -20 -20 -20 -20 -20 -20 -20 -20 -20 -20 -20 -20 -20 -20 -20 -20 -20 -20 -20 -20 -20 -20 -20 -20 -20 -20 -20 -20 -20 -20 -20 -20 -20 -20 -20 -20 -20 -20 -20 -20 -20 -20 -20 -20 -20 -20 -20
-20 -20 -20 -20 -20 -20 -20 -20 -20 -20 -20 -20 -20 -20 -20 -20 -20 -20 -20 -20 -20 -20 -20 -20 -20 -20 -20 -20 -20 -20 -20 -20 -20 -20 -20 -20 -20 -20 -20 -20 -20 -20 -20 -20 -20 -20 -20 -20 -20
-20 -20 -20 -20 -20 -20 -20 -20 -20 -20 -20 -20 -20 -20 -20 -20 -20 -5 4 -3 -16 -20 -20 -17 -20 -16 -19 -20 -20 -20 -20 -20 -20 -20 -20 -20 -20 -20 -20 -20 -20 -20 -20 -20 -20 -20 -20 -20 -20
-20 -20 -20 -20 -20 -20 -20 -20 -20 -20 -20 -20 -20 -20 -20 -20 -20 -20 -20 -20 -20 -20 15 -20 2 13 10 -13 -20 -20 -18 -20 -20 -20 -20 -20 -20 -20 -20 -20 -20 -20 -20 -20 -20 -20 -20 -20 -20
-20 -20 -20 -20 -20 -20 -20 -20 -20 -20 -20 -20 -20 -20 -20 -20 -20 -20 -20 -20 -20 -20 -20 29 -3 11 3 7 16 9 -3 2 -12 -20 -20 -20 -20 -20 -20 -20 -20 -20 -20 -20 -20 -20 -20 -20 -20
-20 -20 -20 -20 -20 -20 -20 -20 -20 -20 -20 -20 -20 -20 -20 -20 -20 -20 -20 -20 -20 -20 -20 -20 -20 -8 9 15 16 13 19 16 -4 -18 -20 -19 -20 -19 -6 -13 -20 -20 -20 -20 -20 2 7 5 5
-20 -20 -20 -7 -20 0 -20 -20 -20 -20 -20 -20 -20 -18 -18 -19 -20 -20 -20 -20 -20 -20 -20 -20 -20 -20 -2 19 14 24 10 21 5 -14 -20 -16 2 18 13 19 2 -20 -18 18 22 18 27 4 20
-20 -20 -11 -10 -6 5 -20 -20 -20 -20 -20 -6 13 -10 -11 15 -20 -5 -5 -20 -20 -20 -6 -18 -20 -20 -6 16 15 11 19 19 14 11 1 17 18 18 -16 -11 20 26 34 32 2 -18 -8 -3 8
-20 -20 -13 17 20 17 11 -20 -20 -20 -18 6 22 12 12 26 14 -20 -17 -5 -20 -20 -17 -7 -16 -20 -20 -4 17 13 1 9 11 9 13 14 13 1 30 13 19 17 -12 1 -8 -14 -20 -4 17
-20 -19 -19 8 -18 20 19 10 -16 -19 6 14 36 39 31 35 25 12 21 24 17 4 -20 -20 -20 -20 -11 8 15 18 17 16 6 10 20 20 23 14 4 -12 7 17 4 7 -14 -4 -9 -0 23
Wind_Speed
9 11 9 10 7 8 15 20 23 8 5 16 14 9 12 13 7 9 6 15 22 18 16 16 13 14 14 14 13 12 11 12 10 10 9 9 8 8 7 6 5 4 4 3 3 4 5 5 6
10 17 9 9 10 12 14 21 7 9 15 8 5 6 8 11 11 9 6 11 19 17 13 14 12 14 14 14 13 12 11 11 10 9 8 8 8 7 6 6 5 4 2 3 5 6 5 5 5
9 16 8 7 13 14 17 10 4 15 9 3 1 2 8 8 13 6 11 8 19 15 14 14 12 13 14 14 13 12 12 11 11 10 10 10 10 9 7 5 3 3 5 3 3 5 5 5 5
8 9 7 9 18 20 19 8 5 9 4 8 4 1 8 5 6 9 12 8 18 14 15 16 11 12 13 14 14 13 12 11 10 9 8 10 9 9 8 6 7 7 8 7 5 5 5 5 4
12 8 12 17 20 22 20 3 9 5 7 8 8 7 8 9 14 15 13 7 15 14 15 15 11 11 13 13 12 12 12 10 9 8 8 9 10 9 9 10 10 10 10 10 9 8 7 6 6
9 11 14 16 21 20 4 6 3 6 10 8 9 7 8 14 17 13 12 6 12 12 13 12 12 11 12 11 11 11 11 8 9 9 11 10 10 11 11 11 11 11 11 10 10 9 8 7 6
12 11 17 21 21 21 10 7 6 7 9 11 7 6 10 13 14 15 12 11 12 11 12 10 9 10 11 11 11 11 11 10 11 12 12 12 11 11 11 11 11 11 11 10 9 8 6 5 4
13 13 20 18 16 20 4 7 6 6 11 4 5 5 7 15 13 12 11 10 10 8 10 11 9 9 9 8 12 13 12 12 12 12 12 12 12 11 11 12 10 9 9 9 7 5 3 0 1
19 12 14 19 21 13 8 2 3 5 7 12 4 5 16 18 14 10 10 9 8 8 9 11 12 11 11 10 10 13 15 13 12 10 11 11 7 7 10 10 8 7 6 5 4 4 4 5 7
14 12 19 20 18 13 14 14 6 5 10 13 10 16 18 18 15 15 13 11 12 11 13 12 12 12 12 10 9 9 9 7 7 8 7 6 5 3 10 8 8 7 7 6 5 6 7 6 4
17 16 19 19 21 11 14 15 12 12 14 12 10 18 19 16 13 12 13 13 11 12 11 13 12 12 12 10 8 6 6 6 6 7 8 6 6 4 6 4 4 4 8 4 5 4 1 7 5
21 22 18 22 17 15 15 14 17 15 11 13 10 10 21 19 16 15 12 11 12 13 13 14 14 11 11 9 8 7 7 6 5 5 6 5 4 4 4 4 5 3 3 1 2 4 4 5 4
20 19 20 16 18 21 14 17 17 19 18 15 16 13 8 11 16 17 16 15 15 15 14 13 13 12 9 9 7 6 5 5 5 5 5 5 5 4 1 3 1 4 3 3 3 4 3 5 5
18 17 18 21 19 20 19 19 19 19 18 21 18 16 14 14 14 17 19 17 18 18 19 13 12 12 8 7 7 5 5 6 6 5 5 6 5 5 5 3 3 3 3 3 4 2 4 4 5
16 19 19 20 20 23 22 24 23 19 22 22 21 15 11 16 18 16 21 21 21 16 20 19 16 15 11 9 7 6 6 7 5 5 6 5 6 5 6 4 4 4 3 2 5 4 1 5 4
20 21 19 18 22 22 22 18 18 16 13 17 5 8 12 13 14 14 14 21 22 20 22 20 16 17 14 12 8 7 6 6 5 6 4 5 6 6 5 4 4 4 4 3 2 1 3 3 4
16 18 21 21 19 8 14 16 15 17 5 9 10 13 12 13 15 15 13 11 20 20 23 23 19 18 16 11 9 7 8 6 6 6 5 6 7 7 5 5 5 3 3 2 3 2 1 2 4
17 17 18 19 16 16 17 19 17 16 19 14 14 14 17 18 16 15 13 11 11 16 23 23 17 17 15 8 8 7 8 5 6 6 6 6 5 5 5 5 5 3 5 3 2 4 2 2 2
21 22 24 22 22 23 19 20 19 16 17 17 17 16 18 19 12 14 11 11 12 7 20 23 22 19 14 9 10 9 9 6 7 7 10 6 5 5 6 5 5 3 4 5 3 1 3 4 4
22 24 22 21 21 20 20 27 21 20 20 17 19 20 19 16 14 16 15 13 13 14 18 18 19 19 16 11 10 7 9 6 5 7 7 6 5 5 5 6 5 6 5 4 1 1 2 3 3
19 20 18 24 20 22 21 33 20 22 23 21 22 26 23 12 4 8 10 14 14 15 20 21 19 16 14 12 9 8 7 6 5 8 6 5 5 5 7 5 5 5 5 4 3 3 4 3 2
23 17 22 22 19 17 15 24 21 14 19 17 9 7 7 5 2 5 9 10 2 9 14 19 20 20 17 14 12 12 10 10 8 7 7 6 6 6 6 6 6 5 5 5 4 4 3 3 5
20 15 16 20 20 16 30 14 29 19 20 18 17 14 10 6 4 6 7 9 12 7 7 16 17 17 18 17 12 11 11 7 8 8 11 7 5 6 7 6 6 6 6 6 7 5 6 5 5
16 13 17 18 15 14 32 15 16 29 13 20 16 9 10 5 5 3 5 6 9 4 4 10 11 14 15 15 10 15 12 11 11 10 9 7 5 5 6 7 6 8 7 6 5 6 7 6 5
15 13 9 9 12 17 22 21 19 20 23 7 10 10 6 5 4 3 6 6 7 13 10 4 7 8 11 13 9 7 11 10 15 15 10 10 7 6 6 7 7 7 7 6 6 6 6 6 4
12 14 9 14 14 17 22 19 16 11 10 5 4 7 8 6 3 5 7 4 4 5 8 6 6 6 7 8 8 6 6 4 10 13 11 8 7 7 8 9 9 9 8 7 5 7 5 6 6
8 12 14 14 19 17 17 27 25 27 8 10 9 9 7 7 5 6 7 6 4 4 3 5 6 6 7 7 7 5 6 6 10 11 12 10 11 9 10 10 9 7 6 7 7 7 6 5 6
11 11 9 9 15 23 19 21 13 19 21 8 6 8 5 9 7 6 6 5 5 6 13 8 6 8 8 9 10 10 11 11 11 12 14 13 12 12 10 11 9 7 6 4 8 6 6 6 5
12 13 8 2 9 11 15 9 7 10 13 20 19 20 21 6 7 8 7 4 8 12 11 12 12 11 10 9 10 12 12 13 13 14 14 14 12 11 11 9 10 8 8 5 6 7 6 7 6
22 21 17 11 16 9 7 5 10 8 7 7 17 14 13 22 5 7 6 5 7 9 8 9 9 9 8 9 9 10 12 13 14 14 13 13 12 10 10 10 11 10 9 8 7 4 5 6 5
Wind_Direction
281 251 236 253 246 232 255 249 256 66 90 28 14 348 354 22 30 95 73 90 111 126 132 142 138 144 141 138 135 133 133 127 127 125 122 119 116 109 106 106 141 127 122 119 125 122 89 74 59
281 274 240 276 246 261 257 256 81 72 70 54 20 316 263 99 85 101 102 116 120 125 141 140 139 143 140 137 137 139 142 135 134 135 137 135 130 119 109 93 75 67 96 89 97 88 75 68 61
260 270 269 234 243 247 270 13 59 87 82 53 337 166 324 54 93 97 121 136 116 134 155 128 134 138 137 136 141 146 152 147 147 161 166 171 153 139 121 98 75 50 69 76 79 93 86 60 37
246 237 241 258 264 274 267 303 13 6 359 155 246 248 92 35 91 105 141 177 129 153 121 127 133 138 142 149 156 163 166 158 146 150 131 113 120 119 111 95 78 66 65 80 81 77 63 59 33
244 263 262 262 271 267 271 39 47 346 295 296 197 226 105 102 104 119 130 150 89 102 118 126 124 137 137 136 132 130 121 111 105 105 111 106 108 110 107 101 94 88 80 79 74 70 60 46 33
270 253 263 271 269 271 31 59 67 293 273 265 280 253 104 126 127 125 119 111 95 113 121 124 118 109 105 106 103 103 98 109 118 115 108 113 115 112 107 102 99 95 91 86 86 80 74 62 45
248 266 267 268 285 298 311 176 138 258 304 292 329 240 114 139 125 120 119 108 109 115 126 119 127 115 98 98 104 111 119 119 116 117 117 115 111 109 109 106 105 103 98 90 82 78 74 70 56
254 264 274 276 282 285 71 74 129 240 274 26 338 323 140 113 133 123 122 118 117 112 120 137 137 136 129 135 123 123 122 122 118 121 123 122 118 122 121 113 101 97 100 104 100 102 99 87 269
266 269 264 267 266 327 82 117 290 260 299 288 143 23 110 130 137 135 133 136 132 143 158 158 155 152 148 139 136 127 132 130 128 136 149 151 146 169 123 92 112 115 113 117 138 159 202 231 250
243 249 259 264 281 330 319 328 285 231 233 234 205 131 133 142 156 169 155 159 163 171 181 166 164 159 155 157 155 148 149 159 162 173 181 203 111 75 114 128 148 161 167 175 195 215 226 225 247
273 249 263 278 296 327 316 305 277 270 266 261 290 154 139 152 166 188 187 180 179 181 190 167 167 165 167 145 174 166 170 174 180 172 199 197 110 143 140 153 176 192 197 195 202 195 288 32 22
257 259 268 274 285 300 296 285 294 286 272 289 308 155 159 166 178 183 190 197 187 193 188 176 174 162 183 150 179 170 181 166 151 168 192 129 156 181 189 169 152 182 106 156 32 89 116 98 71
261 267 281 288 276 277 266 259 270 275 284 267 266 259 202 192 177 176 192 190 184 196 189 194 168 162 187 167 180 172 161 157 162 153 171 160 161 162 147 76 134 97 146 140 102 102 63 119 88
285 291 287 291 289 283 276 261 255 254 257 257 256 254 243 202 219 186 181 190 186 195 185 182 169 164 182 188 184 169 149 163 140 162 183 190 130 143 120 158 144 113 98 82 80 45 136 97 130
274 276 274 260 264 267 263 256 251 255 252 244 250 235 241 257 213 215 185 186 185 202 177 174 170 168 178 199 167 165 160 141 158 157 158 160 125 157 155 152 139 122 84 128 150 182 172 127 122
270 268 266 269 253 244 237 268 276 268 286 226 225 252 252 248 257 245 230 189 183 189 167 169 173 169 174 198 171 171 161 159 153 130 157 156 140 158 150 146 120 130 159 160 106 138 141 127 113
251 257 260 266 264 247 227 252 262 252 233 254 233 237 227 240 243 247 252 248 182 187 162 168 172 171 173 197 172 182 152 176 141 143 159 164 154 168 156 128 108 194 128 92 142 38 50 146 128
264 250 246 247 252 233 243 241 236 260 268 218 226 240 236 236 230 235 228 226 241 184 159 163 165 166 168 191 170 177 158 165 148 150 152 162 162 173 125 112 140 177 131 152 44 130 2 73 141
260 271 279 285 296 299 289 277 268 266 265 252 253 247 254 252 239 253 230 214 203 194 155 163 163 164 163 181 182 176 172 163 150 153 140 168 149 152 125 122 165 144 95 95 149 137 139 26 6
289 288 285 289 293 288 287 278 270 266 267 265 267 256 250 247 236 231 238 211 185 162 157 163 167 164 171 175 183 173 169 154 148 119 143 142 154 148 137 139 149 110 101 108 54 7 112 88 30
264 272 277 280 289 286 294 281 270 269 268 257 245 248 248 272 33 354 352 326 172 165 160 162 164 167 174 175 176 160 170 153 139 142 141 140 143 160 110 106 102 109 124 116 104 29 39 145 66
275 277 279 287 291 282 288 287 281 286 285 263 231 235 231 103 64 5 349 336 228 161 152 163 165 166 174 183 182 180 179 173 156 148 142 147 152 128 117 106 110 106 90 102 92 30 22 3 135
292 326 313 294 281 292 272 255 285 265 268 286 286 222 107 92 43 18 6 343 332 164 129 164 169 168 172 182 180 178 176 165 150 151 143 140 132 119 120 116 110 103 91 75 71 57 39 20 66
297 291 282 274 272 257 260 266 265 275 295 285 288 121 109 109 63 31 36 3 334 57 95 139 160 163 170 185 185 171 171 163 154 149 147 144 130 124 122 118 102 96 96 101 98 82 67 60 65
266 264 278 257 232 238 259 261 251 267 277 333 98 105 132 125 121 74 64 27 12 50 50 81 132 161 158 172 173 167 158 157 157 144 149 147 144 136 129 114 106 101 100 94 95 87 75 73 68
278 297 276 291 287 293 305 284 291 357 30 66 154 157 154 140 133 107 91 60 24 62 90 62 101 121 120 122 123 120 109 129 143 150 149 147 146 125 95 89 95 96 101 97 83 83 76 70 66
321 287 309 308 297 286 276 281 281 292 223 211 208 192 161 98 80 61 77 61 40 33 70 121 81 94 120 107 96 103 94 114 143 125 124 106 107 107 105 95 91 91 89 97 100 97 92 90 76
255 309 305 293 282 273 277 283 303 355 356 311 352 304 182 126 136 106 66 67 72 62 47 44 88 85 85 98 103 101 100 95 102 99 105 108 108 105 109 121 119 108 89 101 84 108 98 95 95
291 286 289 311 272 265 263 268 48 360 14 357 338 332 338 356 115 97 88 74 72 70 69 73 68 73 74 75 98 106 112 112 112 109 114 114 119 130 141 126 115 124 121 91 81 75 95 97 105
292 288 276 246 269 256 285 276 352 51 13 19 334 311 314 308 328 66 86 90 83 93 88 89 89 83 83 93 98 106 116 118 118 121 122 123 128 123 125 122 130 123 110 109 113 106 106 100 116